GW6141 Weather Reports


time (UTC)temp
F
wind
direction
speed
knots
gust
knots
rain 1hr
in
rain 24hr
in
rain mn
in
humidity
%
barometer
mb
20260504081535 47 254 0.0 0.0 0.00 0.00 0.00 84 1014.9
20260504050018 45 254 0.0 0.0 0.00 0.00 0.00 82 1015.0
20260504044522 44 254 0.0 0.0 0.00 0.00 0.00 82 1014.9
20260504043031 44 254 0.0 0.0 0.00 0.00 0.00 82 1015.0
20260504041512 44 254 0.0 0.0 0.00 0.00 0.00 81 1015.1
20260504040012 44 254 0.0 0.0 0.00 0.00 0.00 80 1015.0
20260504034515 44 254 0.0 0.0 0.00 0.00 0.00 79 1015.0
20260504033022 45 254 0.0 0.0 0.00 0.00 0.00 77 1015.1
20260504031524 46 254 0.0 0.0 0.00 0.00 0.00 76 1015.1
20260504030025 46 254 0.0 0.0 0.00 0.00 0.00 75 1015.1
20260504024513 46 254 0.0 0.0 0.00 0.00 0.00 73 1015.1
20260504023020 46 254 0.0 0.0 0.00 0.00 0.00 71 1015.0
20260504021524 47 254 0.0 0.0 0.00 0.00 0.00 69 1014.9
20260504020025 48 254 0.0 0.0 0.00 0.00 0.00 66 1014.7
20260504014533 49 254 0.0 0.0 0.00 0.00 0.00 63 1014.6
20260504013030 50 254 0.0 0.0 0.00 0.00 0.00 59 1014.3
20260504011521 50 254 0.0 0.0 0.00 0.00 0.00 56 1014.3
20260504010024 52 254 0.0 0.0 0.00 0.00 0.00 54 1014.1
20260504004533 53 254 0.0 0.0 0.00 0.00 0.00 50 1014.2
20260504003028 55 254 0.0 0.0 0.00 0.00 0.00 47 1014.1
20260504001518 56 254 0.0 0.0 0.00 0.00 0.00 44 1014.1
20260504000028 58 254 0.0 0.0 0.00 0.00 0.00 41 1014.2
20260503234522 60 254 0.0 0.0 0.00 0.00 0.00 42 1014.1
20260503233028 61 254 0.0 0.9 0.00 0.00 0.00 38 1013.9
20260503231531 63 248 0.0 2.6 0.00 0.00 0.00 32 1013.8
20260503230021 63 244 0.0 8.7 0.00 0.00 0.00 29 1013.8
20260503224527 64 277 1.7 4.3 0.00 0.00 0.00 29 1013.8
20260503223028 64 230 1.7 8.7 0.00 0.00 0.00 29 1013.9
20260503221523 64 294 1.7 6.1 0.00 0.00 0.00 30 1014.0
20260503220020 64 143 1.7 6.1 0.00 0.00 0.00 29 1014.1
20260503214518 65 228 0.9 5.2 0.00 0.00 0.00 27 1014.1
20260503213011 65 288 1.7 11.3 0.00 0.00 0.00 28 1014.1
20260503211529 66 274 0.9 6.1 0.00 0.00 0.00 27 1014.3
20260503210015 65 234 1.7 5.2 0.00 0.00 0.00 30 1014.3
20260503204522 65 311 0.9 6.1 0.00 0.00 0.00 29 1014.3
20260503203042 65 196 0.9 9.6 0.00 0.00 0.00 29 1014.3
20260503201519 65 205 0.0 4.3 0.00 0.00 0.00 34 1014.6
20260503200014 65 315 3.5 11.3 0.00 0.00 0.00 28 1015.0
20260503194531 64 129 2.6 9.6 0.00 0.00 0.00 30 1015.0
20260503193024 64 261 0.0 10.4 0.00 0.00 0.00 31 1015.2
20260503191524 63 254 0.9 7.0 0.00 0.00 0.00 31 1015.4
20260503190035 63 153 2.6 8.7 0.00 0.00 0.00 31 1015.8
20260503184522 62 252 0.9 9.6 0.00 0.00 0.00 35 1015.9
20260503183024 62 325 0.9 6.1 0.00 0.00 0.00 34 1016.1
20260503181518 61 268 0.0 2.6 0.00 0.00 0.00 39 1016.4
20260503180033 60 295 2.6 7.0 0.00 0.00 0.00 36 1016.7
20260503174527 60 288 0.9 6.1 0.00 0.00 0.00 35 1016.6
20260503173020 59 248 0.9 8.7 0.00 0.00 0.00 36 1017.1
20260503171523 59 279 0.9 7.0 0.00 0.00 0.00 43 1017.3